Regional Weather Roundup
Issued by NWS

Home | Current Version | Previous Version | Text Only | Print | Product List | Glossary Off
Versions: 1 2 3 4 5 6 7 8 9 10 11 12 13 14 15 16 17 18 19 20 21 22 23 24 25 26 27 28 29 30 31 32 33 34 35 36 37 38 39 40 41 42 43 44 45 46 47 48 49 50

000
ASUS45 KBOI 270010
RWRID
WEATHER ROUNDUP FOR IDAHO
NATIONAL WEATHER SERVICE BOISE ID
500 PM MST MON JAN 26 2015

NOTE: "FAIR" INDICATES FEW OR NO CLOUDS BELOW 12000 FEET
WITH NO SIGNIFICANT WEATHER AND/OR OBSTRUCTIONS TO VISIBILITY

IDZ012-014-270100-
SOUTHWEST IDAHO


CITY           SKY/WX    TMP DP  RH WIND       PRES   REMARKS
BOISE          CLEAR     43  35  73 N5        30.19F
CALDWELL       CLEAR     45  32  61 CALM      30.21F
MOUNTAIN HOME  CLEAR     48  39  70 N8        30.16F
$$

IDZ016-017-270100-
SOUTHCENTRAL IDAHO


CITY           SKY/WX    TMP DP  RH WIND       PRES   REMARKS
BURLEY         CLEAR     47  36  65 NE14      30.17S
JEROME         CLEAR     43  35  73 NE21      30.15F
TWIN FALLS     CLEAR     49  38  65 E15       30.15F
$$

IDZ019>023-270100-
SOUTHEAST IDAHO


CITY           SKY/WX    TMP DP  RH WIND       PRES   REMARKS
IDAHO FALLS    CLEAR     38  31  76 N9        30.25F WCI  31
POCATELLO      CLEAR     45  37  73 NE12      30.22F
REXBURG        CLEAR     38  31  76 NE5       30.26F WCI  34
$$

IDZ006-010-011-018-031-032-270100-
CENTRAL IDAHO MOUNTAINS


CITY           SKY/WX    TMP DP  RH WIND       PRES   REMARKS
MCCALL         PTCLDY    45  30  55 NW5       30.16S
HAILEY         PTCLDY    48  30  49 NW5       30.20F
STANLEY          N/A     35  23  61 CALM      30.23F
SALMON         CLOUDY   N/A N/A N/A CALM      30.23F VSB 1/4
CHALLIS        PTCLDY    37  30  75 NW3       30.21F
$$

IDZ002-004-006-007-026-270100-
NORTHERN IDAHO


CITY           SKY/WX    TMP DP  RH WIND       PRES   REMARKS
LEWISTON       CLEAR     60  38  43 S8        30.00F
LOWELL           N/A     40  37  89 N5        30.10S
COEUR D`ALENE  CLEAR     43  37  81 NE8       30.00S
MULLAN PASS    CLEAR     47  26  44 SW7G16    30.09S
$$


USA.gov is the U.S. government's official web portal to all federal, state and local government web resources and services.